Station Historical Data
Daily Summary for September 12, 2017 Units:  Metric    English   Both
« Previous Day
Next Day »
Daily Weekly Monthly Yearly Custom
  High: Low: Average:
Temperature: 16.9 °C 14.7 °C 15.9 °C
Dew Point: 15.9 °C 13.7 °C 14.9 °C
Humidity: 94% 92% 94%
Wind Speed: 33.8km/h 0km/h 18.2km/h
Wind Gust: 61.2km/h - -
Wind- - ESE
Pressure: 1011.7 hPa 1000.6 hPa -
Precipitation: 17.78 mm    
Historical Graphs
 
 
Tabular Data for September 12, 2017
Time Temperature Dew Point Pressure Wind Wind Speed Wind Gust Humidity Rainfall Rate (Hourly) Conditions
00:00 16.2 °C 15.1 °C 1000.9 hPa ENE 20.9 km/h 38.6 km/h 93% 0 mm -RA
00:05 16.2 °C 15.1 °C 1000.9 hPa ENE 20.9 km/h 38.6 km/h 93% 0 mm -RA
00:10 16.3 °C 15.1 °C 1000.9 hPa ENE 20.9 km/h 38.6 km/h 93% 0 mm -RA
00:15 16.3 °C 15.2 °C 1000.9 hPa ENE 19.3 km/h 51.5 km/h 93% 0.25 mm -RA
00:20 16.3 °C 15.2 °C 1000.9 hPa ENE 19.3 km/h 51.5 km/h 93% 0 mm -RA
00:25 16.3 °C 15.2 °C 1000.9 hPa ENE 25.7 km/h 61.2 km/h 93% 0.25 mm -RA
00:30 16.3 °C 15.2 °C 1000.9 hPa ENE 25.7 km/h 61.2 km/h 93% 0.25 mm -RA
00:40 16.4 °C 15.5 °C 1000.6 hPa ENE 25.7 km/h 61.2 km/h 94% 0.25 mm -RA
00:45 16.4 °C 15.5 °C 1000.6 hPa ENE 25.7 km/h 61.2 km/h 94% 0.51 mm -RA
00:50 16.4 °C 15.5 °C 1000.6 hPa ENE 25.7 km/h 61.2 km/h 94% 0.25 mm -RA
00:55 16.5 °C 15.6 °C 1000.6 hPa ENE 25.7 km/h 61.2 km/h 94% 0.25 mm -RA
01:00 16.6 °C 15.6 °C 1000.6 hPa ENE 25.7 km/h 61.2 km/h 94% 0.25 mm -RA
01:10 16.6 °C 15.6 °C 1000.6 hPa ENE 25.7 km/h 61.2 km/h 94% 0 mm -RA
01:15 16.6 °C 15.7 °C 1000.6 hPa ENE 14.5 km/h 61.2 km/h 94% 0.25 mm -RA
01:20 16.7 °C 15.7 °C 1000.6 hPa East 14.5 km/h 32.2 km/h 94% 0 mm -RA
01:25 16.7 °C 15.7 °C 1000.6 hPa East 14.5 km/h 38.6 km/h 94% 0.25 mm -RA
01:30 16.7 °C 15.8 °C 1000.6 hPa East 14.5 km/h 38.6 km/h 94% 0.51 mm -RA
01:35 16.8 °C 15.8 °C 1000.9 hPa East 14.5 km/h 38.6 km/h 94% 0.51 mm -RA
01:40 16.8 °C 15.9 °C 1000.9 hPa East 14.5 km/h 38.6 km/h 94% 0.51 mm -RA
01:45 16.9 °C 15.9 °C 1000.9 hPa East 25.7 km/h 40.2 km/h 94% 0.25 mm +RA
01:50 16.9 °C 15.9 °C 1000.9 hPa ESE 25.7 km/h 40.2 km/h 94% 0.25 mm +RA
01:55 16.8 °C 15.9 °C 1000.9 hPa East 25.7 km/h 40.2 km/h 94% 0 mm OVC
02:00 16.8 °C 15.8 °C 1000.9 hPa East 25.7 km/h 40.2 km/h 94% 0 mm OVC
02:05 16.8 °C 15.8 °C 1001.2 hPa East 25.7 km/h 40.2 km/h 94% 0 mm OVC
02:10 16.7 °C 15.6 °C 1001.2 hPa East 25.7 km/h 40.2 km/h 93% 0 mm OVC
02:15 16.7 °C 15.6 °C 1001.2 hPa East 19.3 km/h 40.2 km/h 93% 0.25 mm RA
02:20 16.7 °C 15.6 °C 1001.2 hPa East 19.3 km/h 40.2 km/h 93% 0 mm OVC
02:25 16.7 °C 15.5 °C 1001.2 hPa East 20.9 km/h 40.2 km/h 93% 0 mm -RA
02:30 16.6 °C 15.5 °C 1001.2 hPa East 20.9 km/h 33.8 km/h 93% 0 mm -RA
02:40 16.6 °C 15.5 °C 1001.2 hPa East 20.9 km/h 33.8 km/h 93% 0 mm -RA
02:45 16.6 °C 15.4 °C 1001.2 hPa East 27.4 km/h 40.2 km/h 93% 0 mm -RA
02:50 16.5 °C 15.4 °C 1001.2 hPa East 27.4 km/h 40.2 km/h 93% 0 mm -RA
02:55 16.5 °C 15.4 °C 1001.2 hPa East 27.4 km/h 40.2 km/h 93% 0.25 mm -RA
03:00 16.4 °C 15.3 °C 1001.2 hPa East 27.4 km/h 40.2 km/h 93% 0 mm -RA
03:05 16.4 °C 15.3 °C 1001.2 hPa East 27.4 km/h 40.2 km/h 93% 0 mm -RA
03:10 16.4 °C 15.3 °C 1001.2 hPa East 27.4 km/h 40.2 km/h 93% 0 mm -RA
03:15 16.4 °C 15.3 °C 1001.2 hPa East 22.5 km/h 45.1 km/h 93% 0 mm OVC
03:25 16.4 °C 15.4 °C 1001.2 hPa East 25.7 km/h 45.1 km/h 94% 0.25 mm RA
03:35 16.4 °C 15.4 °C 1001.2 hPa East 25.7 km/h 38.6 km/h 94% 0 mm OVC
03:40 16.4 °C 15.4 °C 1001.2 hPa East 25.7 km/h 38.6 km/h 94% 0.25 mm RA
03:45 16.4 °C 15.4 °C 1001.2 hPa East 25.7 km/h 38.6 km/h 94% 0 mm OVC
03:50 16.4 °C 15.4 °C 1001.2 hPa East 25.7 km/h 38.6 km/h 94% 0 mm OVC
03:55 16.3 °C 15.4 °C 1001.6 hPa East 27.4 km/h 46.7 km/h 94% 0.25 mm -DZ
04:00 16.3 °C 15.4 °C 1001.6 hPa East 27.4 km/h 46.7 km/h 94% 0 mm -DZ
04:05 16.3 °C 15.4 °C 1001.6 hPa East 27.4 km/h 46.7 km/h 94% 0 mm -DZ
04:10 16.3 °C 15.3 °C 1001.6 hPa East 27.4 km/h 46.7 km/h 94% 0.25 mm -DZ
04:15 16.3 °C 15.3 °C 1001.6 hPa East 22.5 km/h 46.7 km/h 94% 0 mm -RA
04:20 16.2 °C 15.1 °C 1001.6 hPa East 22.5 km/h 45.1 km/h 93% 0 mm -RA
04:25 16.1 °C 15 °C 1001.6 hPa East 29 km/h 45.1 km/h 93% 0 mm OVC
04:30 16.1 °C 14.9 °C 1001.6 hPa East 29 km/h 41.8 km/h 93% 0 mm OVC
04:35 16.1 °C 15.1 °C 1001.6 hPa East 29 km/h 41.8 km/h 94% 0.25 mm OVC
04:40 16.1 °C 15.1 °C 1001.6 hPa East 29 km/h 41.8 km/h 94% 0 mm OVC
04:45 16 °C 15.1 °C 1001.6 hPa ESE 33.8 km/h 51.5 km/h 94% 0.25 mm -DZ
04:50 16 °C 15.1 °C 1001.9 hPa ESE 33.8 km/h 51.5 km/h 94% 0 mm -DZ
04:55 15.9 °C 15 °C 1001.9 hPa ESE 33.8 km/h 51.5 km/h 94% 0 mm -DZ
05:00 15.9 °C 14.8 °C 1001.9 hPa ESE 33.8 km/h 51.5 km/h 93% 0 mm -DZ
05:05 15.8 °C 14.7 °C 1001.9 hPa ESE 33.8 km/h 51.5 km/h 93% 0 mm -DZ
05:10 15.8 °C 14.7 °C 1002.3 hPa ESE 33.8 km/h 51.5 km/h 93% 0.25 mm -DZ
05:15 15.7 °C 14.6 °C 1002.3 hPa ESE 33.8 km/h 51.5 km/h 93% 0 mm -RA
05:20 15.6 °C 14.4 °C 1002.3 hPa ESE 33.8 km/h 45.1 km/h 93% 0.25 mm -RA
05:25 15.5 °C 14.4 °C 1002.3 hPa ESE 33.8 km/h 45.1 km/h 93% 0 mm -RA
05:30 15.4 °C 14.3 °C 1002.6 hPa ESE 33.8 km/h 45.1 km/h 93% 0.25 mm -RA
05:35 15.3 °C 14.2 °C 1002.6 hPa ESE 33.8 km/h 45.1 km/h 93% 0 mm -RA
05:40 15.2 °C 14.1 °C 1002.6 hPa ESE 33.8 km/h 45.1 km/h 93% 0 mm -RA
05:45 15.2 °C 14.1 °C 1002.6 hPa ESE 33.8 km/h 45.1 km/h 93% 0 mm -RA
05:50 15.1 °C 14 °C 1002.9 hPa ESE 33.8 km/h 45.1 km/h 93% 0 mm -RA
05:55 15.1 °C 13.9 °C 1002.9 hPa ESE 33.8 km/h 45.1 km/h 93% 0 mm -RA
06:00 15.1 °C 13.9 °C 1002.9 hPa ESE 33.8 km/h 45.1 km/h 93% 0.25 mm -RA
06:05 15.1 °C 13.9 °C 1003.3 hPa ESE 33.8 km/h 45.1 km/h 93% 0 mm -RA
06:10 15.1 °C 14.1 °C 1003.3 hPa ESE 33.8 km/h 45.1 km/h 94% 0 mm -RA
06:15 15 °C 13.9 °C 1003.3 hPa ESE 22.5 km/h 45.1 km/h 93% 0.25 mm -RA
06:20 14.9 °C 13.8 °C 1003.6 hPa SE 22.5 km/h 22.5 km/h 93% 0.25 mm -RA
06:25 14.9 °C 13.8 °C 1003.6 hPa ESE 25.7 km/h 48.3 km/h 93% 0 mm -RA
06:35 14.9 °C 13.9 °C 1003.6 hPa ESE 25.7 km/h 48.3 km/h 94% 0.25 mm -RA
06:40 14.8 °C 13.9 °C 1003.6 hPa ESE 25.7 km/h 48.3 km/h 94% 0 mm -RA
06:45 14.8 °C 13.8 °C 1003.9 hPa ESE 25.7 km/h 48.3 km/h 94% 0.25 mm -RA
06:50 14.8 °C 13.8 °C 1003.9 hPa East 25.7 km/h 38.6 km/h 94% 0 mm -RA
07:00 14.7 °C 13.8 °C 1003.9 hPa East 24.1 km/h 24.1 km/h 94% 0.25 mm -RA
07:05 14.7 °C 13.8 °C 1004.3 hPa East 24.1 km/h 24.1 km/h 94% 0 mm -RA
07:10 14.7 °C 13.7 °C 1004.3 hPa East 24.1 km/h 24.1 km/h 94% 0.25 mm -RA
07:15 14.7 °C 13.8 °C 1004.3 hPa East 20.9 km/h 24.1 km/h 94% 0.25 mm -RA
07:20 14.7 °C 13.7 °C 1004.3 hPa East 20.9 km/h 20.9 km/h 94% 0 mm -RA
07:25 14.7 °C 13.7 °C 1004.3 hPa East 20.9 km/h 20.9 km/h 94% 0.25 mm -RA
07:30 14.7 °C 13.7 °C 1004.6 hPa East 20.9 km/h 20.9 km/h 94% 0 mm -RA
07:35 14.7 °C 13.7 °C 1004.6 hPa East 20.9 km/h 20.9 km/h 94% 0.25 mm -RA
07:40 14.7 °C 13.8 °C 1004.6 hPa East 20.9 km/h 20.9 km/h 94% 0.25 mm -RA
07:45 14.7 °C 13.8 °C 1004.6 hPa East 20.9 km/h 20.9 km/h 94% 0 mm -RA
07:50 14.7 °C 13.8 °C 1005 hPa East 20.9 km/h 20.9 km/h 94% 0.25 mm -RA
07:55 14.7 °C 13.8 °C 1005 hPa East 20.9 km/h 20.9 km/h 94% 0 mm -RA
08:00 14.8 °C 13.8 °C 1005 hPa East 20.9 km/h 20.9 km/h 94% 0.25 mm -RA
08:05 14.8 °C 13.8 °C 1005 hPa East 20.9 km/h 20.9 km/h 94% 0 mm -RA
08:10 14.8 °C 13.8 °C 1005 hPa East 20.9 km/h 20.9 km/h 94% 0 mm -RA
08:15 14.8 °C 13.8 °C 1005.3 hPa ESE 24.1 km/h 24.1 km/h 94% 0.25 mm -RA
08:25 14.8 °C 13.8 °C 1005.3 hPa ESE 24.1 km/h 24.1 km/h 94% 0 mm -RA
08:30 14.8 °C 13.8 °C 1005.6 hPa ESE 24.1 km/h 24.1 km/h 94% 0 mm -RA
08:40 14.8 °C 13.9 °C 1005.6 hPa ESE 24.1 km/h 24.1 km/h 94% 0 mm -RA
08:45 14.8 °C 13.9 °C 1005.6 hPa ESE 20.9 km/h 24.1 km/h 94% 0 mm -DZ
08:50 14.8 °C 13.9 °C 1005.6 hPa ESE 20.9 km/h 20.9 km/h 94% 0.25 mm -DZ
08:55 14.8 °C 13.9 °C 1006 hPa ESE 20.9 km/h 20.9 km/h 94% 0 mm -DZ
09:00 14.8 °C 13.9 °C 1006 hPa ESE 20.9 km/h 20.9 km/h 94% 0 mm -DZ
09:05 14.8 °C 13.9 °C 1006 hPa ESE 20.9 km/h 20.9 km/h 94% 0.25 mm -DZ
09:10 14.8 °C 13.9 °C 1006 hPa ESE 20.9 km/h 20.9 km/h 94% 0 mm -DZ
09:15 14.9 °C 13.9 °C 1006 hPa ESE 24.1 km/h 24.1 km/h 94% 0.25 mm -DZ
09:20 14.9 °C 13.9 °C 1006.3 hPa ESE 24.1 km/h 24.1 km/h 94% 0 mm -DZ
09:25 14.9 °C 13.9 °C 1006.3 hPa ESE 24.1 km/h 24.1 km/h 94% 0 mm -DZ
09:30 14.9 °C 13.9 °C 1006.3 hPa ESE 24.1 km/h 24.1 km/h 94% 0.25 mm -DZ
09:35 14.9 °C 14 °C 1006.3 hPa ESE 24.1 km/h 24.1 km/h 94% 0 mm -DZ
09:40 15 °C 14.1 °C 1006.3 hPa ESE 24.1 km/h 24.1 km/h 94% 0 mm -DZ
09:45 15 °C 14.1 °C 1006.7 hPa ESE 20.9 km/h 24.1 km/h 94% 0 mm -DZ
09:50 15.1 °C 14.1 °C 1006.7 hPa ESE 20.9 km/h 20.9 km/h 94% 0 mm -DZ
09:55 15.1 °C 14.1 °C 1006.7 hPa ESE 20.9 km/h 20.9 km/h 94% 0 mm -DZ
10:00 15.1 °C 14.1 °C 1006.7 hPa ESE 20.9 km/h 20.9 km/h 94% 0.25 mm -DZ
10:10 15.1 °C 14.1 °C 1007 hPa ESE 20.9 km/h 20.9 km/h 94% 0 mm -DZ
10:15 15.1 °C 14.1 °C 1007 hPa ESE 19.3 km/h 20.9 km/h 94% 0.25 mm -DZ
10:20 15.1 °C 14.2 °C 1007 hPa ESE 19.3 km/h 19.3 km/h 94% 0 mm -DZ
10:30 15.2 °C 14.2 °C 1007.3 hPa ESE 19.3 km/h 19.3 km/h 94% 0.25 mm -DZ
10:40 15.3 °C 14.3 °C 1007.3 hPa ESE 19.3 km/h 19.3 km/h 94% 0 mm -DZ
10:45 15.3 °C 14.3 °C 1007.3 hPa ESE 20.9 km/h 20.9 km/h 94% 0 mm -DZ
10:55 15.3 °C 14.4 °C 1007.3 hPa ESE 20.9 km/h 20.9 km/h 94% 0 mm -DZ
11:00 15.4 °C 14.4 °C 1007.3 hPa ESE 20.9 km/h 20.9 km/h 94% 0 mm -DZ
11:15 15.5 °C 14.6 °C 1007.7 hPa SE 14.5 km/h 20.9 km/h 94% 0.25 mm -DZ
11:20 15.5 °C 14.6 °C 1007.7 hPa SE 14.5 km/h 14.5 km/h 94% 0 mm -DZ
11:25 15.6 °C 14.6 °C 1007.7 hPa SE 14.5 km/h 14.5 km/h 94% 0 mm -DZ
11:30 15.5 °C 14.6 °C 1007.7 hPa SE 14.5 km/h 14.5 km/h 94% 0.25 mm -DZ
11:35 15.6 °C 14.6 °C 1007.7 hPa SE 14.5 km/h 14.5 km/h 94% 0.25 mm -DZ
11:40 15.6 °C 14.7 °C 1008 hPa SE 14.5 km/h 14.5 km/h 94% 0 mm -DZ
11:45 15.6 °C 14.7 °C 1008 hPa SE 20.9 km/h 20.9 km/h 94% 0 mm -RA
11:50 15.7 °C 14.7 °C 1008 hPa SE 20.9 km/h 20.9 km/h 94% 0 mm -RA
11:55 15.7 °C 14.8 °C 1008 hPa SE 16.1 km/h 20.9 km/h 94% 0 mm -DZ
12:00 15.7 °C 14.7 °C 1008 hPa SE 16.1 km/h 16.1 km/h 94% 0 mm -DZ
12:05 15.7 °C 14.8 °C 1008 hPa SE 16.1 km/h 16.1 km/h 94% 0.25 mm -DZ
12:10 15.6 °C 14.7 °C 1008 hPa SE 16.1 km/h 16.1 km/h 94% 0 mm -DZ
12:15 15.7 °C 14.8 °C 1008 hPa SE 20.9 km/h 20.9 km/h 94% 0 mm -DZ
12:20 15.8 °C 14.8 °C 1008 hPa SE 20.9 km/h 20.9 km/h 94% 0 mm -DZ
12:25 15.8 °C 14.9 °C 1008.4 hPa SE 20.9 km/h 20.9 km/h 94% 0 mm -DZ
12:30 15.8 °C 14.9 °C 1008.4 hPa SE 20.9 km/h 20.9 km/h 94% 0 mm -DZ
12:40 15.8 °C 14.9 °C 1008.4 hPa SE 20.9 km/h 20.9 km/h 94% 0 mm -DZ
12:45 15.8 °C 14.8 °C 1008.4 hPa SE 20.9 km/h 20.9 km/h 94% 0.25 mm -DZ
12:50 15.9 °C 14.9 °C 1008.4 hPa SE 20.9 km/h 20.9 km/h 94% 0 mm -DZ
12:55 15.9 °C 14.9 °C 1008.4 hPa SE 14.5 km/h 20.9 km/h 94% 0 mm -DZ
13:00 15.9 °C 15 °C 1008.4 hPa SE 14.5 km/h 14.5 km/h 94% 0 mm -DZ
13:05 16.1 °C 15.1 °C 1008.4 hPa SE 14.5 km/h 14.5 km/h 94% 0 mm -DZ
13:10 16.1 °C 15.2 °C 1008.4 hPa SE 14.5 km/h 14.5 km/h 94% 0 mm -DZ
13:15 16.2 °C 15.2 °C 1008.4 hPa SE 14.5 km/h 14.5 km/h 94% 0 mm -DZ
13:20 16.1 °C 15.1 °C 1008.4 hPa SSE 14.5 km/h 14.5 km/h 94% 0 mm -DZ
13:25 15.9 °C 15 °C 1008.4 hPa SSE 14.5 km/h 14.5 km/h 94% 0 mm -DZ
13:30 15.9 °C 15 °C 1008.7 hPa SSE 14.5 km/h 14.5 km/h 94% 0.25 mm -DZ
13:35 15.9 °C 15 °C 1008.7 hPa SSE 14.5 km/h 14.5 km/h 94% 0 mm -DZ
13:45 16.1 °C 15.2 °C 1008.7 hPa SSE 14.5 km/h 14.5 km/h 94% 0 mm -DZ
13:55 16.2 °C 15.3 °C 1008.7 hPa SSE 14.5 km/h 14.5 km/h 94% 0 mm -DZ
14:00 16.2 °C 15.3 °C 1008.7 hPa SSE 14.5 km/h 14.5 km/h 94% 0 mm -DZ
14:10 16.1 °C 14.9 °C 1008.7 hPa SSE 14.5 km/h 14.5 km/h 93% 0 mm -DZ
14:15 16.2 °C 15.2 °C 1008.7 hPa SSE 12.9 km/h 14.5 km/h 94% 0 mm -DZ
14:20 16.3 °C 15.3 °C 1008.7 hPa SSE 12.9 km/h 12.9 km/h 94% 0 mm -DZ
14:25 16.3 °C 15.4 °C 1008.7 hPa SSE 12.9 km/h 12.9 km/h 94% 0 mm -DZ
14:30 16.4 °C 15.4 °C 1008.7 hPa SSE 12.9 km/h 12.9 km/h 94% 0 mm -DZ
14:35 16.4 °C 15.4 °C 1009 hPa SSE 12.9 km/h 12.9 km/h 94% 0 mm -DZ
14:40 16.4 °C 15.4 °C 1009 hPa SSE 12.9 km/h 12.9 km/h 94% 0 mm -DZ
14:45 16.3 °C 15.2 °C 1009 hPa SSE 12.9 km/h 12.9 km/h 93% 0 mm -DZ
14:50 16.3 °C 15.4 °C 1009 hPa SSE 12.9 km/h 12.9 km/h 94% 0 mm -DZ
14:55 16.4 °C 15.4 °C 1009 hPa SSE 12.9 km/h 12.9 km/h 94% 0 mm -DZ
15:00 16.6 °C 15.7 °C 1009 hPa SE 12.9 km/h 12.9 km/h 94% 0 mm -DZ
15:05 16.6 °C 15.7 °C 1009 hPa SE 12.9 km/h 12.9 km/h 94% 0 mm -DZ
15:10 16.7 °C 15.7 °C 1009 hPa SE 12.9 km/h 12.9 km/h 94% 0 mm -DZ
15:20 16.8 °C 15.6 °C 1009 hPa SE 12.9 km/h 12.9 km/h 93% 0 mm -DZ
15:25 16.8 °C 15.7 °C 1009 hPa SSE 14.5 km/h 14.5 km/h 93% 0 mm -RA
15:30 16.7 °C 15.5 °C 1009 hPa SSE 14.5 km/h 14.5 km/h 93% 0 mm -RA
15:40 16.3 °C 15.1 °C 1009 hPa SSE 14.5 km/h 14.5 km/h 92% 0.25 mm -RA
15:50 16.3 °C 15.2 °C 1009 hPa SE 14.5 km/h 14.5 km/h 93% 0 mm OVC
15:55 16.4 °C 15.3 °C 1009 hPa SE 14.5 km/h 14.5 km/h 93% 0 mm OVC
16:00 16.6 °C 15.4 °C 1009 hPa SE 14.5 km/h 14.5 km/h 93% 0 mm OVC
16:05 16.7 °C 15.6 °C 1008.7 hPa SE 14.5 km/h 14.5 km/h 93% 0 mm OVC
16:10 16.7 °C 15.6 °C 1009 hPa SE 14.5 km/h 14.5 km/h 93% 0 mm OVC
16:15 16.8 °C 15.7 °C 1009 hPa SE 16.1 km/h 16.1 km/h 93% 0 mm OVC
16:20 16.7 °C 15.6 °C 1009 hPa SE 16.1 km/h 16.1 km/h 93% 0 mm OVC
16:25 16.7 °C 15.6 °C 1009 hPa SE 16.1 km/h 16.1 km/h 93% 0 mm OVC
16:30 16.7 °C 15.6 °C 1009 hPa SE 16.1 km/h 16.1 km/h 93% 0 mm OVC
16:40 16.7 °C 15.5 °C 1009 hPa SE 16.1 km/h 16.1 km/h 93% 0 mm OVC
16:45 16.5 °C 15.2 °C 1009.4 hPa SSE 11.3 km/h 16.1 km/h 92% 0 mm OVC
16:55 16.2 °C 14.9 °C 1009.4 hPa South 11.3 km/h 11.3 km/h 92% 0 mm OVC
17:00 16.1 °C 14.8 °C 1009.4 hPa South 11.3 km/h 11.3 km/h 92% 0.25 mm RA
17:05 16.2 °C 15.1 °C 1009.4 hPa South 11.3 km/h 11.3 km/h 93% 0 mm OVC
17:10 16.2 °C 15.1 °C 1009.4 hPa South 11.3 km/h 11.3 km/h 93% 0 mm OVC
17:15 16.2 °C 15 °C 1009.4 hPa South 9.7 km/h 11.3 km/h 93% 0 mm OVC
17:20 16.1 °C 15 °C 1009.4 hPa South 9.7 km/h 9.7 km/h 93% 0 mm OVC
17:25 16.1 °C 14.9 °C 1009.4 hPa South 9.7 km/h 9.7 km/h 93% 0 mm OVC
17:30 16.1 °C 14.9 °C 1009.4 hPa South 9.7 km/h 9.7 km/h 93% 0 mm OVC
17:40 16.1 °C 15 °C 1009.7 hPa South 9.7 km/h 9.7 km/h 93% 0 mm OVC
17:50 16.2 °C 15.1 °C 1009.7 hPa South 11.3 km/h 11.3 km/h 93% 0.51 mm -RA
17:55 16.2 °C 15 °C 1009.7 hPa South 11.3 km/h 11.3 km/h 93% 0.51 mm -DZ
18:00 16.2 °C 15.1 °C 1009.7 hPa South 11.3 km/h 11.3 km/h 93% 0 mm -DZ
18:05 16.1 °C 15 °C 1009.7 hPa South 11.3 km/h 11.3 km/h 93% 0 mm -DZ
18:10 16.1 °C 15 °C 1009.7 hPa South 11.3 km/h 11.3 km/h 93% 0.25 mm -DZ
18:15 16.2 °C 15.1 °C 1009.7 hPa WSW 11.3 km/h 11.3 km/h 93% 0 mm OVC
18:20 16.2 °C 15.1 °C 1009.7 hPa NW 11.3 km/h 11.3 km/h 93% 0 mm OVC
18:25 16.2 °C 15.3 °C 1009.7 hPa SSE 11.3 km/h 11.3 km/h 94% 0 mm OVC
18:30 16.2 °C 15.3 °C 1009.7 hPa SSE 11.3 km/h 11.3 km/h 94% 0 mm OVC
18:40 16.2 °C 15.1 °C 1010 hPa SSE 11.3 km/h 11.3 km/h 93% 0 mm OVC
18:50 16.3 °C 15.3 °C 1010 hPa SSE 11.3 km/h 11.3 km/h 94% 0 mm OVC
18:55 16.2 °C 15.1 °C 1010 hPa SSE 11.3 km/h 11.3 km/h 93% 0 mm OVC
19:00 16.2 °C 15.1 °C 1010 hPa SSE 11.3 km/h 11.3 km/h 93% 0 mm OVC
19:05 16.2 °C 15.1 °C 1010 hPa SSE 11.3 km/h 11.3 km/h 93% 0 mm OVC
19:10 16.2 °C 15 °C 1010 hPa SSE 11.3 km/h 11.3 km/h 93% 0 mm OVC
19:15 16.2 °C 15.2 °C 1010 hPa SE 12.9 km/h 12.9 km/h 94% 0 mm OVC
19:20 16.2 °C 15.2 °C 1010 hPa SE 12.9 km/h 12.9 km/h 94% 0 mm OVC
19:25 15.4 °C 14.4 °C 1011.1 hPa Calm     94% 0 mm
19:30 16.1 °C 15.2 °C 1010.4 hPa SE 12.9 km/h 12.9 km/h 94% 0 mm OVC
19:35 16.1 °C 15.1 °C 1010.4 hPa SE 12.9 km/h 12.9 km/h 94% 0 mm OVC
19:40 16.1 °C 15.2 °C 1010.4 hPa SE 12.9 km/h 12.9 km/h 94% 0 mm OVC
19:45 16.1 °C 15.1 °C 1010.4 hPa SE 12.9 km/h 12.9 km/h 94% 0 mm OVC
19:50 16.1 °C 15.2 °C 1010.4 hPa SE 12.9 km/h 12.9 km/h 94% 0 mm OVC
19:55 16.1 °C 15.2 °C 1010.7 hPa SE 12.9 km/h 12.9 km/h 94% 0 mm OVC
20:00 16.1 °C 15.1 °C 1010.7 hPa SE 12.9 km/h 12.9 km/h 94% 0 mm OVC
20:05 16.1 °C 15.1 °C 1010.7 hPa SE 12.9 km/h 12.9 km/h 94% 0 mm OVC
20:10 16.1 °C 15.1 °C 1010.7 hPa SE 12.9 km/h 12.9 km/h 94% 0 mm OVC
20:15 16.1 °C 15.1 °C 1010.7 hPa SE 9.7 km/h 12.9 km/h 94% 0 mm OVC
20:20 16.1 °C 15.1 °C 1010.7 hPa ESE 9.7 km/h 9.7 km/h 94% 0 mm OVC
20:25 16.1 °C 15.1 °C 1010.7 hPa ESE 9.7 km/h 9.7 km/h 94% 0 mm OVC
20:30 16.1 °C 15.1 °C 1010.7 hPa ESE 9.7 km/h 9.7 km/h 94% 0 mm OVC
20:35 16.1 °C 15.1 °C 1011.1 hPa ESE 9.7 km/h 9.7 km/h 94% 0 mm OVC
20:40 16.1 °C 15.1 °C 1011.1 hPa ESE 9.7 km/h 9.7 km/h 94% 0 mm OVC
20:45 16.1 °C 15.1 °C 1011.1 hPa ESE 9.7 km/h 9.7 km/h 94% 0 mm OVC
20:50 16 °C 15.1 °C 1011.1 hPa ESE 9.7 km/h 9.7 km/h 94% 0 mm OVC
20:55 16 °C 15.1 °C 1011.1 hPa ESE 9.7 km/h 9.7 km/h 94% 0 mm OVC
21:00 15.9 °C 15 °C 1011.1 hPa ESE 9.7 km/h 9.7 km/h 94% 0 mm OVC
21:05 15.9 °C 15 °C 1011.1 hPa ESE 9.7 km/h 9.7 km/h 94% 0 mm OVC
21:10 15.9 °C 14.9 °C 1011.4 hPa ESE 9.7 km/h 9.7 km/h 94% 0 mm OVC
21:15 15.9 °C 14.9 °C 1011.4 hPa ESE 9.7 km/h 9.7 km/h 94% 0 mm BKN
21:20 15.9 °C 14.9 °C 1011.4 hPa ESE 9.7 km/h 9.7 km/h 94% 0 mm BKN
21:25 15.9 °C 14.9 °C 1011.4 hPa ESE 9.7 km/h 9.7 km/h 94% 0 mm BKN
21:30 15.9 °C 14.9 °C 1011.4 hPa ESE 9.7 km/h 9.7 km/h 94% 0 mm BKN
21:35 15.9 °C 14.9 °C 1011.4 hPa ESE 9.7 km/h 9.7 km/h 94% 0 mm BKN
21:40 15.9 °C 14.9 °C 1011.7 hPa ESE 9.7 km/h 9.7 km/h 94% 0 mm BKN
21:45 15.9 °C 14.9 °C 1011.7 hPa ESE 9.7 km/h 9.7 km/h 94% 0 mm BKN
21:50 15.9 °C 14.9 °C 1011.7 hPa ESE 9.7 km/h 9.7 km/h 94% 0 mm BKN
21:55 15.8 °C 14.9 °C 1011.7 hPa ESE 9.7 km/h 9.7 km/h 94% 0 mm BKN
22:00 15.8 °C 14.9 °C 1011.7 hPa ESE 9.7 km/h 9.7 km/h 94% 0.25 mm BKN
22:05 15.8 °C 14.9 °C 1011.7 hPa ESE 9.7 km/h 9.7 km/h 94% 0 mm BKN
22:10 15.8 °C 14.9 °C 1011.7 hPa ESE 9.7 km/h 9.7 km/h 94% 0 mm BKN
22:15 15.9 °C 14.9 °C 1011.7 hPa East 8 km/h 9.7 km/h 94% 0 mm OVC
22:20 15.9 °C 14.9 °C 1011.7 hPa East 8 km/h 8 km/h 94% 0 mm OVC
22:25 15.9 °C 14.9 °C 1011.7 hPa East 8 km/h 8 km/h 94% 0 mm OVC
22:30 15.8 °C 14.9 °C 1011.7 hPa East 8 km/h 8 km/h 94% 0 mm OVC
22:40 15.8 °C 14.9 °C 1011.7 hPa East 8 km/h 8 km/h 94% 0 mm OVC
22:45 15.8 °C 14.9 °C 1011.7 hPa East 8 km/h 8 km/h 94% 0 mm OVC
22:50 15.8 °C 14.8 °C 1011.7 hPa East 8 km/h 8 km/h 94% 0 mm OVC
22:55 15.8 °C 14.8 °C 1011.7 hPa East 8 km/h 8 km/h 94% 0 mm OVC
23:00 15.8 °C 14.8 °C 1011.7 hPa East 8 km/h 8 km/h 94% 0 mm OVC
23:10 15.7 °C 14.8 °C 1011.7 hPa East 8 km/h 8 km/h 94% 0 mm OVC
23:20 15.7 °C 14.7 °C 1011.7 hPa East 9.7 km/h 9.7 km/h 94% 0 mm BKN
23:35 15.6 °C 14.6 °C 1011.7 hPa East 9.7 km/h 9.7 km/h 94% 0 mm SCT
23:40 15.6 °C 14.6 °C 1011.4 hPa East 9.7 km/h 9.7 km/h 94% 0 mm SCT
23:45 15.5 °C 14.6 °C 1011.4 hPa East 9.7 km/h 9.7 km/h 94% 0 mm SCT
23:50 15.5 °C 14.6 °C 1011.4 hPa East 9.7 km/h 9.7 km/h 94% 0 mm SCT
23:55 15.5 °C 14.6 °C 1011.4 hPa East 8 km/h 9.7 km/h 94% 0 mm BKN
Piedmont Bend
Compliments of Weather Underground - 2 mb